Temperature
16 17 17 17 14 12 14 15 15 16 18 20 20 20 19 19 19 20 20 21 21 20 19 18 17 17 17 17 16 16 16 16 16 16 16 16 16 15 15 15 15 16 16 16 16 16 16 16 15
16 16 17 16 13 13 14 15 16 17 19 19 19 19 18 18 19 19 20 20 20 20 19 18 17 17 17 17 16 16 16 16 16 16 16 16 16 16 15 15 16 16 16 16 16 16 16 16 16
15 16 16 13 12 13 15 16 16 17 19 19 19 18 18 17 18 19 19 19 19 19 19 18 17 17 17 16 16 16 16 16 16 17 16 16 16 16 16 16 16 16 16 16 16 16 16 16 16
15 16 15 12 13 14 15 16 16 17 19 19 18 17 17 17 18 18 19 19 19 19 19 18 17 17 17 16 16 16 16 16 17 17 17 16 16 16 16 16 16 16 16 16 16 16 16 16 16
15 15 12 12 13 14 14 16 17 16 18 18 18 16 17 18 18 18 19 18 19 19 18 17 17 17 17 17 16 17 17 17 17 17 17 16 16 16 16 16 16 16 16 16 16 16 16 16 16
14 13 11 12 13 14 15 16 17 16 17 18 17 16 16 17 18 18 18 18 18 18 18 17 16 16 16 17 17 17 17 17 17 17 17 17 17 17 17 16 16 16 16 16 16 16 16 16 16
13 11 11 12 13 14 15 16 16 15 16 17 17 16 16 16 17 17 17 17 17 17 17 16 16 16 16 16 17 17 17 17 17 17 17 17 17 17 17 17 17 17 16 16 16 16 16 16 15
13 11 12 12 13 14 15 16 15 15 16 17 17 16 16 16 16 16 16 16 16 16 16 16 16 16 16 16 16 16 17 17 17 17 17 17 17 17 17 17 17 17 17 16 16 16 16 16 16
12 11 11 12 13 14 14 14 15 16 16 16 16 16 17 17 16 16 16 15 15 15 15 16 16 16 16 16 16 16 16 17 17 17 17 18 18 17 17 17 17 17 17 16 16 16 16 16 16
11 11 12 13 14 14 14 14 14 15 15 15 15 15 16 16 16 16 16 15 15 15 15 15 16 16 16 16 16 16 16 16 17 17 17 17 17 17 17 17 17 17 17 16 16 16 16 16 16
10 11 12 13 14 14 14 13 14 14 14 14 14 15 15 16 16 17 16 16 16 16 16 16 16 16 16 16 16 16 16 17 17 17 17 17 17 17 17 17 17 17 16 16 16 16 16 16 15
10 11 12 13 14 14 13 13 13 14 14 15 15 15 15 16 17 17 17 17 17 16 16 16 16 16 16 16 16 16 16 17 17 17 17 17 17 17 17 17 17 16 16 16 16 15 15 15 15
10 11 13 13 13 13 13 13 13 14 15 15 15 15 16 16 17 17 17 17 17 17 17 16 16 16 16 16 16 16 16 16 16 16 16 16 16 16 16 16 16 16 16 15 15 15 15 15 15
10 11 12 12 13 13 13 13 13 14 15 15 15 15 16 16 17 17 17 17 17 17 17 16 16 16 16 16 16 16 16 16 16 16 16 16 16 16 16 16 15 15 15 15 15 14 14 14 14
11 10 11 11 12 12 12 12 12 14 15 15 15 15 15 16 17 17 17 17 17 17 16 16 16 16 16 16 16 16 16 15 16 16 16 16 15 15 15 15 15 15 14 14 14 14 14 14 14
10 10 10 10 11 11 12 11 12 14 14 14 15 15 15 16 16 17 17 17 17 17 16 16 16 16 16 16 15 15 15 15 15 15 15 15 15 15 15 15 15 14 14 13 13 13 13 13 13
9 8 9 10 10 11 11 11 12 13 13 13 14 15 15 16 16 17 17 17 17 17 16 16 16 16 16 15 15 15 15 15 15 15 15 15 14 14 14 14 14 14 13 13 13 13 13 13 12
8 8 9 9 10 10 10 11 12 13 13 13 14 15 15 16 16 17 17 17 17 17 17 16 16 16 16 15 15 15 15 15 15 15 15 14 14 14 14 14 14 13 13 13 13 13 13 12 12
8 8 9 9 10 10 10 11 12 12 12 12 13 14 15 16 16 17 17 17 17 17 17 17 16 16 16 16 15 15 15 15 15 15 15 14 14 14 14 14 14 13 13 13 13 13 13 12 12
9 8 9 10 11 11 10 11 11 12 12 13 13 14 15 15 16 16 17 17 17 17 17 17 16 16 16 16 15 15 15 15 15 15 14 14 14 14 14 14 13 13 13 13 13 13 13 12 12
9 8 8 9 10 10 10 10 11 11 12 13 13 14 15 15 16 16 16 16 16 16 16 16 16 16 16 15 15 15 15 15 14 14 14 14 14 14 14 14 13 13 13 13 13 13 12 12 12
9 9 9 9 9 9 10 9 9 10 10 11 12 13 14 15 15 15 15 16 16 16 15 15 15 15 15 15 15 14 14 14 14 14 14 14 14 13 13 13 13 13 13 13 13 12 12 12 11
9 9 9 9 8 8 8 8 8 9 9 11 12 13 14 15 15 15 15 15 15 15 15 15 15 14 14 14 14 14 13 13 13 13 13 13 13 13 13 13 12 12 12 12 12 12 12 11 11
8 8 7 7 7 8 7 8 8 8 9 10 11 13 14 15 15 14 14 14 14 14 14 14 13 13 13 13 13 13 13 12 12 12 12 12 12 12 12 12 12 11 11 11 11 11 11 11 11
8 8 7 7 7 7 7 7 8 9 9 9 11 13 13 14 14 13 13 13 13 13 13 12 12 12 12 12 12 12 12 11 11 11 11 11 11 11 11 10 10 10 10 10 10 10 10 10 10
8 8 7 7 7 6 7 6 8 9 9 10 11 12 12 12 12 12 13 12 12 12 12 11 11 11 11 11 11 11 10 10 10 10 10 9 9 9 9 9 9 9 9 9 9 9 9 9 9
7 7 7 6 6 6 6 6 6 8 8 9 10 10 11 11 11 11 11 11 11 11 11 11 10 10 10 10 9 9 9 9 9 8 8 8 8 8 8 8 8 8 9 9 9 9 9 8 8
7 6 6 6 6 7 7 7 7 9 9 8 7 8 9 9 10 10 11 11 11 10 10 10 10 9 9 9 8 8 8 8 8 7 7 7 7 7 7 7 8 8 8 8 8 8 8 8 8
7 7 7 6 6 6 6 7 8 8 8 7 7 8 8 9 10 10 10 10 10 10 10 9 9 9 8 8 7 7 7 7 7 7 7 6 6 6 7 7 7 7 7 7 7 7 7 7 7
7 7 6 6 6 5 5 7 9 7 6 6 7 8 8 9 10 10 10 10 10 9 9 9 8 8 7 7 7 6 6 6 6 6 5 5 6 6 6 6 6 6 6 6 6 7 7 6 7
Wind_Speed
6 5 3 4 5 4 3 5 4 5 4 2 1 3 7 6 5 3 2 8 10 10 16 20 18 16 15 14 14 14 14 14 12 11 10 11 12 13 13 13 13 13 13 13 14 14 15 15 15
3 3 4 5 5 2 5 5 5 5 3 2 2 3 4 3 1 4 5 7 11 14 15 17 18 17 16 15 15 15 14 13 12 11 10 11 13 14 13 13 13 13 13 13 13 13 13 13 13
1 3 4 5 5 7 5 3 4 6 5 2 1 3 3 2 3 5 5 10 11 12 14 17 18 17 16 16 16 15 14 13 12 11 10 11 13 14 14 13 13 13 12 12 12 12 12 11 11
3 4 5 4 6 6 4 1 3 6 3 1 3 3 3 3 2 5 10 13 12 9 14 18 18 17 17 17 16 16 15 13 12 11 10 11 13 13 13 13 12 12 11 11 10 10 10 9 9
3 3 3 3 6 4 3 4 3 4 3 1 3 3 3 6 4 10 13 14 12 8 13 17 18 17 17 17 17 16 15 13 12 11 10 11 12 12 12 12 11 10 9 9 8 8 8 8 8
3 4 4 6 5 3 2 2 3 4 3 1 3 3 2 2 7 10 11 11 9 8 11 16 18 17 17 17 17 16 15 13 12 11 11 11 11 11 11 10 9 8 7 7 6 6 6 6 7
5 5 6 7 4 3 1 1 4 4 4 2 2 4 2 3 6 8 8 9 7 8 9 11 15 16 17 17 16 15 14 13 12 11 10 11 11 10 9 9 8 7 6 5 4 4 4 4 5
4 5 6 6 6 4 1 2 3 3 3 4 2 4 5 5 8 9 9 8 7 6 6 8 12 14 14 15 16 15 14 13 12 11 11 11 10 9 8 8 7 6 5 4 3 2 2 3 4
4 5 10 11 9 5 3 3 5 2 3 4 5 3 1 10 11 11 9 7 7 7 5 6 8 10 12 13 14 14 13 12 11 10 11 10 8 7 7 6 6 6 5 4 3 2 1 2 3
5 9 12 8 7 6 3 3 4 6 7 6 7 8 3 9 12 13 12 11 10 9 7 5 6 8 10 10 10 11 11 11 10 10 10 8 7 6 5 5 5 5 5 4 3 2 0 1 2
7 9 7 5 5 3 2 2 2 5 4 4 7 8 1 7 11 13 13 12 11 10 9 7 6 8 8 7 8 8 9 9 10 10 10 9 7 5 4 4 4 4 4 4 3 3 2 1 1
6 6 7 5 4 4 2 1 1 2 4 3 6 5 4 7 11 13 14 12 10 9 9 8 7 7 8 8 7 8 8 8 8 10 11 9 6 5 5 5 6 5 5 5 5 5 5 4 4
5 4 7 6 7 6 4 3 2 6 5 4 7 5 4 7 8 7 7 8 8 9 9 8 7 7 7 7 7 7 8 9 10 11 12 12 8 6 7 6 7 8 8 7 7 7 6 6 6
6 4 5 6 7 6 5 4 3 9 4 8 8 7 6 6 6 6 7 8 9 9 9 8 8 7 8 6 6 7 9 10 10 11 13 14 12 9 7 7 7 9 11 11 10 9 7 6 6
5 6 3 4 7 5 5 6 10 12 7 9 10 8 8 7 6 7 8 8 9 8 7 7 8 7 7 7 8 8 10 10 10 11 13 14 14 12 10 7 7 10 13 12 10 8 7 5 5
6 7 5 5 8 7 10 12 13 9 6 11 11 9 9 8 6 6 6 6 6 6 6 7 7 7 8 6 7 7 9 10 10 11 12 14 15 14 11 7 7 12 12 10 6 4 5 6 6
5 8 8 6 8 8 10 9 9 9 9 13 13 11 9 8 7 5 3 4 4 5 5 5 5 6 7 6 6 7 7 8 9 10 10 12 14 15 13 9 10 12 9 8 6 6 6 7 8
11 8 8 8 8 9 11 7 5 11 14 14 13 11 9 9 8 3 1 1 3 3 4 4 3 3 4 4 3 3 4 4 7 8 9 11 11 13 12 10 10 10 6 6 7 8 7 7 7
9 8 6 4 5 7 9 6 5 8 11 12 13 12 11 9 5 1 1 3 4 4 4 4 4 2 3 2 2 2 3 2 2 4 6 7 8 10 10 7 7 7 8 9 9 7 8 7 4
9 9 7 3 4 6 6 7 6 8 11 13 14 13 12 8 5 3 2 2 4 5 5 5 4 4 3 2 2 1 1 1 1 1 1 2 3 5 6 6 5 5 7 8 8 7 5 5 5
5 9 8 6 4 3 4 5 8 9 8 9 10 11 11 11 10 8 5 4 5 5 5 5 5 5 4 3 2 2 2 2 2 2 2 3 4 4 4 5 5 4 6 7 8 8 8 7 5
4 6 8 8 7 2 4 4 8 9 10 13 14 13 12 10 9 8 7 6 6 5 5 6 6 6 5 4 3 3 2 1 1 2 2 4 4 4 4 4 4 4 4 6 7 7 7 7 7
5 6 6 6 6 2 1 3 8 5 11 16 16 14 12 11 11 11 9 7 6 5 6 6 7 7 6 6 4 4 2 0 1 2 3 4 4 4 5 5 4 3 4 5 6 6 6 6 7
7 8 8 6 4 4 6 6 8 7 11 10 11 12 13 12 11 9 8 7 6 5 6 6 7 7 6 6 6 4 3 1 2 3 3 4 3 3 5 6 4 4 4 5 5 5 6 6 6
5 7 4 2 3 6 4 6 10 9 9 9 10 10 9 10 12 12 11 9 8 7 6 6 7 6 5 6 5 4 3 2 1 2 3 3 3 3 5 5 4 4 4 5 4 4 4 4 5
6 6 7 6 6 4 3 8 9 8 7 8 9 8 6 9 11 12 12 10 9 8 7 6 7 6 5 5 4 4 3 2 1 2 2 2 3 3 4 5 4 5 5 4 4 3 3 2 2
7 4 4 5 3 2 6 7 10 7 7 7 7 6 8 9 10 10 10 9 9 8 7 7 7 6 4 4 4 4 4 3 3 3 2 2 3 3 4 4 5 5 6 5 4 3 3 2 3
4 8 5 5 5 4 5 5 5 7 8 7 6 7 7 8 9 9 9 8 7 6 6 6 6 5 4 4 3 3 4 4 3 4 5 4 5 4 5 6 6 6 7 7 6 5 5 6 6
4 4 4 4 4 5 4 7 6 7 8 9 9 7 8 9 10 9 8 7 7 6 6 6 5 5 4 4 4 4 4 4 5 5 5 5 5 6 6 6 6 7 8 8 7 7 8 8 8
4 6 7 5 5 4 3 8 6 6 9 8 7 6 7 8 8 8 8 8 7 7 6 5 4 4 4 4 4 4 4 5 5 5 5 5 6 6 6 6 7 8 8 8 8 8 8 9 9
Wind_Direction
347 9 56 55 60 64 221 241 240 287 262 260 254 152 150 152 168 188 115 144 138 147 159 157 158 153 149 145 142 139 135 130 125 120 116 117 117 117 114 108 102 99 93 91 92 94 95 94 93
3 35 55 65 106 157 249 243 246 250 280 341 53 85 97 93 81 114 135 155 146 149 154 154 155 152 148 146 143 141 137 131 128 125 121 121 120 119 117 113 107 102 97 96 96 97 97 95 92
31 49 88 92 141 181 221 219 250 282 280 223 78 52 99 107 151 157 158 150 142 144 149 154 153 151 148 146 145 141 136 133 131 128 126 126 125 123 119 115 112 107 103 103 102 100 97 93 89
90 61 66 114 191 211 215 261 299 321 337 97 123 82 66 7 223 155 139 145 140 136 147 153 150 150 147 147 146 142 140 137 134 132 130 129 127 124 120 118 116 112 110 109 107 105 99 91 86
78 101 111 163 211 235 242 278 305 341 321 28 118 116 28 354 79 125 136 143 144 137 146 152 151 150 149 148 147 146 144 142 140 138 136 129 125 125 125 124 122 120 118 116 114 110 103 92 85
101 103 145 192 214 246 264 299 357 0 329 26 118 103 30 46 117 130 135 137 138 138 145 152 153 152 151 150 150 151 150 149 147 145 142 137 131 130 133 133 132 130 127 123 120 115 105 93 85
144 150 178 177 188 227 226 13 58 358 349 338 134 110 101 111 128 122 121 123 125 134 140 147 152 154 154 154 154 155 155 154 153 151 144 140 140 143 146 147 146 144 141 134 127 118 101 86 79
151 146 172 177 180 208 150 65 55 20 321 330 33 146 177 166 134 115 116 121 126 126 134 142 147 151 153 156 159 160 160 160 158 154 149 145 146 154 157 157 160 160 159 156 151 136 95 73 70
128 167 199 195 187 194 129 68 2 349 12 15 13 345 257 137 131 127 131 137 148 151 142 141 141 146 151 156 163 164 165 165 162 158 155 151 153 159 164 170 177 176 176 178 185 190 107 71 67
157 199 211 200 189 178 123 88 26 26 18 19 9 6 62 140 148 152 158 164 170 175 172 159 150 149 151 155 159 163 165 168 167 164 163 163 166 170 174 186 196 198 197 203 216 228 237 51 47
176 201 207 203 190 152 116 84 61 54 20 34 350 330 291 172 167 169 172 177 181 181 181 175 163 157 154 149 156 162 165 169 174 176 177 176 175 181 188 202 219 222 220 225 244 259 261 279 303
174 207 187 183 157 129 159 137 31 132 226 301 321 295 247 205 192 185 182 183 182 183 189 182 171 165 166 161 166 172 173 178 184 189 188 181 181 191 202 211 221 225 226 229 240 249 257 265 270
176 186 181 162 150 157 169 224 276 276 267 330 347 327 250 227 221 207 189 183 181 188 192 188 177 175 173 171 177 183 189 193 196 197 197 196 193 201 209 218 224 229 230 230 234 241 249 258 266
170 158 158 154 153 164 184 245 257 268 305 337 337 321 288 250 228 205 191 189 191 194 195 188 186 185 179 179 185 191 197 201 201 204 206 206 207 209 212 220 225 231 232 234 234 237 242 252 259
134 131 136 163 150 150 139 238 239 251 294 304 305 306 298 274 242 221 207 200 196 195 190 187 191 185 185 189 195 199 201 203 206 214 215 213 213 215 216 219 225 233 235 235 238 243 244 249 249
114 136 169 199 159 154 160 226 231 229 245 272 281 291 291 282 259 245 229 215 202 192 188 192 195 184 192 195 198 201 202 204 213 219 221 220 220 220 218 222 229 233 231 226 225 225 236 243 243
151 176 182 183 172 160 179 224 222 194 208 245 262 270 277 280 277 266 245 215 195 187 179 179 183 181 193 196 198 203 204 209 216 220 223 226 226 224 221 227 232 228 223 223 227 226 222 238 241
176 167 168 179 182 170 191 216 208 187 198 221 242 257 260 260 263 280 275 166 134 135 147 153 155 163 171 173 176 190 206 214 218 220 225 229 230 228 225 231 231 221 219 225 224 230 225 233 241
133 133 151 177 174 172 199 214 219 193 197 213 229 243 247 248 254 263 105 114 108 100 110 118 123 112 123 129 156 178 209 213 212 221 229 231 234 232 227 233 229 218 224 229 225 226 232 238 223
140 140 148 141 151 163 194 228 234 215 207 210 220 232 240 235 225 206 168 116 115 113 107 102 100 93 98 121 131 147 154 191 210 240 250 261 265 253 241 239 237 224 230 234 230 221 227 228 190
154 160 156 143 107 89 132 253 241 240 226 225 225 226 230 218 210 204 185 156 130 118 114 108 95 84 75 85 96 76 64 41 28 5 341 334 320 298 277 265 256 245 236 241 236 226 229 242 221
157 162 142 130 129 185 169 241 255 234 241 234 231 224 220 211 199 195 187 169 147 128 109 101 92 79 66 69 88 110 130 201 313 323 317 325 337 336 325 305 285 268 255 250 247 236 232 237 243
147 130 120 127 126 117 167 219 273 232 236 238 232 223 216 204 193 190 183 165 139 122 109 100 90 75 64 64 78 93 96 40 318 335 337 336 337 346 348 336 322 299 279 271 263 253 240 235 241
118 87 66 63 92 221 206 198 267 228 223 237 233 222 212 199 187 175 157 140 127 115 105 100 92 76 63 66 67 79 84 47 12 354 342 336 330 336 351 345 335 318 302 293 282 269 257 247 245
116 114 104 117 191 240 201 208 248 241 230 229 241 237 216 191 174 165 159 155 146 132 118 106 99 84 68 69 65 63 65 62 38 343 335 334 336 336 339 342 333 326 318 310 301 289 279 264 255
161 145 156 173 196 241 216 231 253 256 267 259 258 254 214 187 176 171 166 157 149 140 129 118 107 98 81 76 68 55 50 50 25 359 343 338 329 326 337 344 346 343 339 335 324 318 315 313 296
140 158 142 122 126 206 250 278 300 275 274 262 257 240 209 184 172 165 155 149 146 141 135 129 120 109 94 87 81 63 48 46 35 18 13 359 348 351 4 8 7 6 4 359 359 11 3 14 16
136 140 112 128 159 230 270 267 254 281 279 281 261 235 206 170 159 154 151 147 141 133 125 119 119 118 107 91 77 73 50 46 44 45 38 29 20 22 25 28 28 26 22 19 28 30 29 43 37
127 137 138 146 169 183 252 268 230 244 270 273 258 225 188 171 164 158 149 139 132 128 126 123 119 115 105 91 80 71 55 52 54 53 44 37 35 36 40 40 42 40 36 34 44 46 45 52 48
166 172 156 170 208 196 216 268 267 258 274 262 247 204 176 169 161 152 146 143 144 144 141 135 128 118 112 104 92 80 68 64 63 57 49 48 50 46 47 48 52 50 46 44 50 55 54 56 55
Height
1522 1523 1525 1527 1531 1542 1542 1535 1530 1527 1524 1522 1521 1521 1522 1525 1529 1533 1528 1529 1533 1536 1539 1543 1547 1550 1552 1555 1556 1558 1559 1559 1560 1560 1560 1561 1561 1562 1562 1563 1563 1563 1563 1563 1563 1563 1564 1565 1566
1522 1523 1526 1527 1536 1547 1542 1531 1528 1525 1523 1522 1521 1521 1521 1523 1524 1525 1526 1529 1534 1537 1540 1543 1547 1550 1553 1555 1557 1558 1559 1560 1560 1561 1561 1562 1563 1563 1564 1564 1565 1565 1565 1565 1565 1565 1566 1567 1568
1521 1522 1525 1528 1537 1542 1534 1526 1525 1523 1521 1521 1521 1521 1522 1524 1524 1525 1527 1530 1534 1538 1541 1544 1548 1551 1553 1555 1557 1558 1559 1560 1561 1561 1562 1563 1564 1565 1565 1566 1567 1567 1567 1567 1567 1568 1568 1569 1570
1520 1523 1525 1531 1534 1531 1526 1524 1523 1522 1521 1521 1521 1522 1523 1525 1526 1527 1529 1531 1534 1538 1542 1545 1548 1551 1553 1556 1557 1559 1560 1561 1561 1562 1563 1564 1565 1566 1567 1568 1568 1569 1569 1569 1570 1570 1571 1571 1572
1518 1521 1527 1532 1530 1526 1524 1523 1522 1522 1521 1521 1521 1522 1523 1525 1526 1528 1530 1532 1535 1538 1542 1546 1549 1551 1554 1556 1558 1559 1561 1562 1562 1563 1564 1565 1566 1567 1568 1569 1570 1570 1571 1571 1572 1572 1572 1573 1573
1517 1519 1529 1532 1528 1524 1522 1522 1521 1521 1521 1521 1521 1522 1524 1525 1526 1529 1531 1534 1536 1539 1542 1546 1549 1552 1554 1556 1558 1560 1561 1563 1563 1564 1565 1566 1566 1567 1568 1570 1570 1571 1572 1572 1573 1573 1574 1574 1575
1514 1519 1525 1526 1526 1523 1522 1521 1522 1522 1521 1522 1522 1523 1524 1526 1528 1530 1532 1534 1537 1540 1543 1546 1549 1552 1554 1556 1559 1560 1562 1563 1564 1565 1566 1566 1567 1568 1569 1570 1571 1572 1573 1573 1574 1574 1575 1575 1575
1511 1516 1521 1523 1523 1522 1521 1521 1522 1522 1523 1523 1523 1523 1524 1526 1528 1531 1533 1535 1538 1540 1543 1546 1549 1551 1554 1556 1558 1560 1562 1563 1564 1565 1566 1567 1568 1569 1569 1570 1571 1572 1573 1574 1575 1575 1575 1575 1576
1509 1517 1518 1518 1518 1518 1519 1521 1522 1523 1523 1523 1524 1524 1524 1526 1528 1531 1533 1536 1538 1540 1543 1546 1548 1551 1553 1556 1558 1560 1561 1563 1564 1565 1566 1567 1568 1569 1570 1571 1571 1572 1573 1574 1575 1575 1576 1576 1576
1507 1512 1510 1510 1512 1514 1518 1520 1522 1523 1523 1524 1525 1525 1525 1527 1528 1530 1533 1535 1537 1540 1542 1545 1547 1550 1552 1555 1557 1559 1560 1562 1563 1564 1566 1567 1567 1568 1569 1570 1571 1572 1573 1574 1575 1575 1576 1576 1576
1504 1506 1506 1509 1511 1513 1517 1520 1522 1524 1526 1527 1528 1528 1528 1528 1529 1530 1533 1535 1537 1540 1542 1544 1546 1549 1551 1554 1556 1558 1559 1561 1562 1564 1565 1566 1567 1567 1568 1569 1570 1571 1572 1573 1574 1575 1575 1576 1576
1502 1503 1505 1508 1510 1514 1517 1520 1522 1523 1526 1527 1527 1528 1529 1529 1529 1530 1532 1535 1537 1539 1541 1543 1545 1548 1550 1553 1555 1557 1558 1560 1561 1563 1564 1565 1566 1567 1568 1569 1570 1570 1571 1572 1573 1573 1574 1574 1574
1501 1502 1504 1507 1510 1514 1517 1519 1521 1521 1523 1525 1526 1527 1528 1529 1530 1531 1533 1535 1537 1538 1540 1542 1544 1547 1549 1551 1553 1555 1557 1559 1560 1561 1562 1563 1564 1566 1566 1567 1568 1569 1570 1571 1571 1572 1572 1572 1572
1499 1501 1503 1506 1509 1512 1517 1519 1520 1518 1521 1523 1525 1526 1528 1529 1529 1530 1531 1533 1535 1537 1539 1542 1544 1546 1548 1550 1552 1554 1556 1557 1558 1560 1561 1562 1563 1564 1565 1566 1566 1567 1568 1569 1569 1569 1569 1569 1569
1498 1503 1506 1507 1508 1512 1517 1521 1518 1517 1521 1523 1524 1526 1526 1528 1529 1530 1531 1533 1534 1536 1539 1541 1543 1545 1547 1549 1551 1552 1554 1555 1557 1558 1559 1560 1561 1562 1563 1564 1564 1565 1566 1566 1566 1567 1566 1566 1566
1499 1505 1509 1507 1508 1511 1519 1520 1514 1517 1521 1522 1523 1524 1525 1526 1527 1529 1530 1532 1533 1535 1537 1539 1541 1543 1545 1547 1549 1550 1552 1553 1554 1556 1557 1558 1559 1560 1560 1561 1561 1563 1563 1563 1563 1563 1563 1563 1562
1500 1507 1508 1507 1507 1509 1515 1515 1512 1515 1519 1521 1521 1523 1524 1524 1525 1527 1528 1530 1531 1533 1535 1537 1539 1541 1543 1545 1547 1548 1549 1550 1552 1553 1554 1555 1556 1556 1557 1557 1558 1559 1559 1559 1559 1559 1559 1558 1558
1498 1503 1505 1507 1506 1508 1511 1511 1509 1511 1515 1518 1519 1520 1522 1522 1523 1525 1526 1528 1529 1531 1533 1535 1537 1539 1541 1543 1544 1545 1546 1547 1549 1550 1550 1551 1552 1552 1553 1553 1553 1554 1554 1554 1554 1554 1554 1554 1553
1495 1501 1505 1505 1504 1508 1510 1510 1510 1510 1513 1515 1516 1517 1518 1519 1521 1522 1524 1525 1527 1529 1531 1532 1534 1536 1538 1540 1541 1542 1543 1544 1545 1546 1547 1547 1548 1548 1548 1548 1549 1549 1549 1549 1549 1549 1548 1548 1548
1494 1501 1504 1504 1504 1507 1510 1511 1509 1509 1510 1510 1512 1513 1514 1516 1517 1519 1521 1522 1524 1526 1527 1529 1531 1533 1535 1536 1538 1539 1540 1541 1542 1542 1543 1543 1543 1543 1543 1543 1543 1543 1543 1543 1544 1543 1543 1542 1543
1495 1500 1503 1505 1506 1507 1510 1513 1509 1506 1506 1507 1507 1508 1510 1511 1513 1515 1517 1519 1520 1522 1524 1526 1528 1530 1531 1533 1534 1535 1536 1536 1537 1537 1538 1538 1538 1538 1537 1537 1537 1537 1537 1537 1537 1538 1537 1536 1537
1496 1497 1500 1503 1510 1515 1513 1519 1509 1504 1503 1501 1501 1502 1503 1506 1509 1511 1513 1515 1517 1519 1521 1523 1525 1526 1528 1529 1530 1530 1531 1531 1532 1532 1532 1533 1532 1532 1531 1531 1531 1531 1530 1530 1530 1531 1530 1530 1530
1494 1496 1500 1504 1511 1516 1516 1519 1510 1502 1501 1494 1492 1494 1497 1500 1504 1507 1510 1512 1514 1516 1518 1519 1521 1522 1523 1525 1525 1526 1526 1526 1527 1527 1527 1527 1527 1526 1525 1525 1524 1524 1524 1523 1523 1524 1524 1523 1523
1493 1499 1505 1510 1514 1519 1517 1519 1510 1501 1492 1488 1486 1487 1489 1494 1498 1502 1506 1508 1510 1512 1514 1516 1518 1519 1520 1520 1521 1521 1522 1522 1522 1521 1521 1521 1521 1520 1519 1519 1518 1518 1517 1517 1517 1517 1517 1517 1517
1494 1503 1513 1516 1519 1519 1515 1514 1501 1489 1484 1483 1482 1482 1484 1487 1491 1496 1500 1504 1507 1509 1512 1513 1515 1516 1516 1517 1517 1517 1517 1517 1517 1517 1516 1516 1515 1515 1514 1513 1512 1512 1511 1511 1510 1510 1510 1510 1510
1495 1500 1510 1514 1519 1519 1515 1512 1494 1483 1480 1479 1479 1479 1480 1482 1486 1490 1495 1500 1503 1507 1509 1511 1512 1512 1513 1513 1513 1513 1513 1512 1512 1512 1511 1511 1510 1510 1509 1508 1507 1507 1506 1505 1505 1504 1504 1504 1504
1496 1500 1503 1513 1516 1517 1515 1506 1494 1480 1477 1476 1475 1475 1475 1478 1482 1487 1492 1497 1501 1504 1506 1508 1509 1509 1510 1510 1509 1509 1509 1508 1508 1508 1507 1507 1506 1506 1505 1504 1503 1502 1501 1501 1500 1500 1499 1499 1499
1492 1497 1506 1512 1515 1512 1506 1504 1496 1482 1477 1475 1475 1474 1474 1477 1481 1486 1491 1495 1499 1502 1503 1505 1506 1506 1506 1506 1506 1505 1505 1505 1505 1504 1504 1503 1503 1502 1501 1500 1499 1498 1497 1497 1496 1496 1495 1495 1495
1495 1497 1500 1507 1510 1512 1511 1501 1484 1480 1477 1475 1472 1472 1474 1477 1480 1485 1490 1494 1497 1499 1501 1502 1502 1502 1502 1502 1502 1502 1502 1501 1501 1501 1500 1500 1500 1499 1498 1497 1496 1495 1494 1494 1493 1493 1492 1492 1491
1491 1493 1498 1504 1508 1511 1511 1500 1477 1477 1474 1472 1471 1472 1474 1478 1482 1486 1489 1492 1494 1496 1498 1498 1499 1499 1498 1498 1498 1498 1498 1498 1498 1497 1497 1497 1496 1496 1495 1494 1494 1493 1492 1491 1491 1490 1489 1489 1488